Regional Weather Roundup
Issued by NWS

Home | Current Version | Previous Version | Graphics & Text | Print | Product List | Glossary Off
Versions: 1 2 3 4 5 6 7 8 9 10 11 12 13 14 15 16 17 18 19 20 21 22 23 24 25 26 27 28 29 30 31 32 33 34 35 36 37 38 39 40 41 42 43 44 45 46 47 48 49 50

000
ASUS43 KTOP 270708
RWRKS

WEATHER ROUNDUP FOR KANSAS
NATIONAL WEATHER SERVICE GOODLAND KS
200 AM CDT MON MAR 27 2017

NOTE:  "FAIR" INDICATES FEW OR NO CLOUDS BELOW 12,000 FEET WITH NO
SIGNIFICANT WEATHER AND/OR OBSTRUCTIONS TO VISIBILITY.

KSZ001>006-013>018-027>032-041>047-270800-
NORTHWEST KANSAS

CITY           SKY/WX    TMP DP  RH WIND       PRES   REMARKS
GOODLAND       PTCLDY    36  36 100 W9        29.93S
HAYS             N/A     46  44  93 N6        29.93R
HILL CITY      CLOUDY    43  43 100 NW6       29.93S
RUSSELL        CLOUDY    46  44  93 N8        29.90S FOG
$$

KSZ061>065-074>080-084>089-270800-
SOUTHWEST KANSAS

CITY           SKY/WX    TMP DP  RH WIND       PRES   REMARKS
DODGE CITY     PTCLDY    42  41  96 N6        29.91F
ELKHART          N/A     36  29  76 NW7         N/A
GARDEN CITY    CLEAR     37  36  96 NW9       29.93F
GREAT BEND     CLOUDY    46  45  96 N10       29.91R
LIBERAL        CLEAR     39  34  81 N8        29.95R
PRATT          CLOUDY    44  43  97 N9        29.90R
$$

KSZ066>073-081>083-090>101-270800-
SOUTHEAST KANSAS

CITY           SKY/WX    TMP DP  RH WIND       PRES   REMARKS
CHANUTE        CLOUDY    53  50  89 E16G26    29.71F
COFFEYVILLE    LGT RAIN  54  51  90 E12       29.76S
HUTCHINSON     LGT RAIN  47  45  93 N12       29.87R
MEDICINE LODGE   N/A     48  46  93 N15       29.88R
NEWTON         CLOUDY    46  46 100 N14       29.85
PARSONS        LGT RAIN  54  51  90 E10G20    29.72F
WICHITA INTL   CLOUDY    49  48  97 NW12      29.84R
WICHITA JABRA  CLOUDY    48  47  96 N12       29.84R
WICHITA MCCONL CLOUDY    48  46  93 N13       29.82F
WINFIELD       LGT RAIN  50  48  93 N10       29.80F
$$

KSZ007>012-019>026-033>040-048>060-102>105-270800-
NORTHEAST KANSAS

CITY           SKY/WX    TMP DP  RH WIND       PRES   REMARKS
CONCORDIA      CLOUDY    45  45 100 N6        29.92R
EMPORIA        CLOUDY    47  47 100 N10       29.82F FOG
LAWRENCE       LGT RAIN  47  47 100 NE16      29.85F FOG
MANHATTAN      CLOUDY    47  45  93 NE8       29.88S
MARYSVILLE     CLOUDY    45  43  93 NE5       29.90R
OLATHE IND     HVY RAIN  47  46  97 NE12      29.87F FOG
OLATHE EXE     HVY RAIN  46  46 100 NE14      29.86F FOG
SALINA         LGT RAIN  49  47  93 N10       29.90R FOG
TOPEKA BILLARD LGT RAIN  46  46 100 NE14      29.83F
TOPEKA FORBES  CLOUDY    48  46  93 NE10      29.83F
$$



USA.gov is the U.S. government's official web portal to all federal, state and local government web resources and services.